This demonstration page uses our WeatherBlox Daily Observations layout. Learn more.

Left ArrowRight Arrow

41.86663, -103.66717

Hourly Observations for September 13, 2018

Temp ( °F °C ) Dew Point ( °F °C ) Humidity (%) Winds ( mph kmh ) Pressure ( in mb ) Visibility ( mi km ) Precip ( " mm )
12:53 am 00:53 Clear 66 18.9 58 14.4 75 75 ENE 7 11 29.65 1004 10 16 N/A
1:53 am 01:53 Clear 63 17.2 58 14.4 84 84 E 9 15 29.64 1004 10 16 N/A
2:53 am 02:53 Clear 58 14.4 57 13.9 97 97 E 6 9 29.65 1004 10 16 N/A
3:53 am 03:53 Clear 54 12.2 54 12.2 100 100 WNW 5 7 29.68 1005 10 16 N/A
4:53 am 04:53 Clear 53 11.7 53 11.7 100 100 NW 7 11 29.72 1007 10 16 N/A
5:53 am 05:53 Clear 51 10.6 51 10.6 100 100 W 9 15 29.77 1008 10 16 N/A
6:53 am 06:53 Sunny 50 10 50 10 100 100 NW 10 17 29.81 1010 10 16 N/A
7:53 am 07:53 Sunny 55 12.8 49 9.4 80 80 W 6 9 29.84 1010 10 16 N/A
8:53 am 08:53 Sunny 63 17.2 51 10.6 65 65 WNW 8 13 29.83 1010 10 16 N/A
9:53 am 09:53 Sunny 67 19.4 55 12.8 66 66 WNW 5 7 29.83 1010 10 16 N/A
10:53 am 10:53 Sunny 72 22.2 57 13.9 59 59 SW 3 6 29.83 1010 10 16 N/A
11:53 am 11:53 Sunny 78 25.6 57 13.9 48 48 NE 3 6 29.80 1009 10 16 N/A
12:53 pm 12:53 Sunny 83 28.3 56 13.3 40 40 undefined N/A 29.77 1008 10 16 N/A
1:53 pm 13:53 Sunny 86 30 53 11.7 32 32 SE 7 11 29.75 1008 10 16 N/A
2:53 pm 14:53 Sunny 88 31.1 48 8.9 25 25 ESE 7 11 29.75 1007 10 16 N/A
3:53 pm 15:53 Sunny 91 32.8 41 5 17 17 E 8 13 29.73 1007 10 16 N/A
4:53 pm 16:53 Sunny 92 33.3 41 5 17 17 ESE 15 24 29.72 1006 10 16 N/A
5:53 pm 17:53 Sunny 88 31.1 42 5.6 20 20 ESE 16 26 29.72 1007 10 16 N/A
6:53 pm 18:53 Sunny 83 28.3 42 5.6 24 24 ESE 16 26 29.74 1007 10 16 N/A
7:53 pm 19:53 Clear 77 25 46 7.8 33 33 SE 12 19 29.76 1008 10 16 N/A
8:53 pm 20:53 Clear 72 22.2 50 10 46 46 ESE 10 17 29.77 1008 10 16 N/A
9:53 pm 21:53 Clear 66 18.9 52 11.1 61 61 ESE 10 17 29.78 1009 10 16 N/A
10:53 pm 22:53 Clear 65 18.3 54 12.2 68 68 NW 7 11 29.80 1009 10 16 N/A
11:53 pm 23:53 Clear 66 18.9 53 11.7 63 63 NNE 9 15 29.79 1009 10 16 N/A

Powered by AerisWeather